Regional Weather Roundup
Issued by NWS

Home | Current Version | Previous Version | Graphics & Text | Print | Product List | Glossary On
Versions: 1 2 3 4 5 6 7 8 9 10 11 12 13 14 15 16 17 18 19 20 21 22 23 24 25 26 27 28 29 30 31 32 33 34 35 36 37 38 39 40 41 42 43 44 45 46 47 48 49 50
000
ASUS45 KTFX 291304
RWRMT
MONTANA HOURLY WEATHER ROUNDUP
NATIONAL WEATHER SERVICE GREAT FALLS MT
704 AM MDT SUN MAR 29 2015

NOTE: "FAIR" INDICATES FEW OR NO CLOUDS BELOW 12000 FEET WITH NO
SIGNIFICANT WEATHER AND/OR OBSTRUCTIONS TO VISIBILITY.

* THESE STATIONS ARE NOT UNDER NWS QUALITY CONTROL. THEY DO NOT
   REPORT WEATHER SUCH AS PRECIPITATION OR FOG.

MTZ001>007-043-291400-
WEST OF THE DIVIDE
CITY           SKY/WX    TMP DP  RH WIND       PRES   REMARKS
KALISPELL      PTCLDY    36  34  92 SW7       30.24S WCI  30
MISSOULA       PTCLDY    34  28  79 E5        30.32S WCI  29
BUTTE          PTCLDY    25  19  78 S6        30.30F WCI  18
MULLAN PASS    CLOUDY    28  27  96 S7        30.23F WCI  21
* ESSEX        N/A       33  33 100 NW1        N/A
* LINCOLN      N/A       38  27  65 S2G10      N/A
* LOOKOUT PASS N/A       32  31  96 NW1        N/A
* POLSON       N/A       33  31  92 N/A        N/A
* SEELEY LAKE  N/A       28  27  96 N2         N/A
* THOMP F APT  CLOUDY    30  12  47 E2G10      N/A
* YAAK HILL    N/A       35  32  89 NE2        N/A
$$

MTZ008-052>055-291400-
SOUTHWEST MONTANA
CITY           SKY/WX    TMP DP  RH WIND       PRES   REMARKS
BOZEMAN        PTCLDY    27  19  72 S7        30.30S WCI  19
DILLON         PTCLDY    27  18  69 N5        30.31S WCI  21
* W YELLOWSTON CLEAR     18  15  88 N/A        N/A
* BOULDER HILL N/A       34  18  52 S8         N/A   WCI  27
* HOMESTAKE PS N/A       29  19  66 W2         N/A
* MONIDA PASS  N/A       22  16  78 W1         N/A
* RAYNOLDS PAS N/A       25   3  38 SE4        N/A
* WHITEHALL    N/A       29  19  66 E1         N/A
* WISE RIVER   N/A       25  20  81 SW4        N/A
$$

MTZ009>010-012-014-046-048-049-054-291400-
EAST SLOPES AND CENTRAL MONTANA
CITY           SKY/WX    TMP DP  RH WIND       PRES   REMARKS
CUT BANK       CLEAR     41  27  58 W18G30    30.09R
GREAT FALLS    PTCLDY    37  27  67 SW12      30.16F WCI  29
HELENA         MOCLDY    39  23  53 SE3       30.26S
MALMSTROM AFB  PTCLDY    37  28  70 SW16      30.16F WCI  28
* DEARBORN     N/A       45  27  49 SE6G12     N/A
* EAST GLACIER N/A       38  28  67 W16G22     N/A   WCI  29
* MONARCH      N/A       35  21  57 S14G19     N/A   WCI  26
* PENDROY      N/A       38  24  57 W2G16      N/A
* ROGERS PASS  N/A       34  25  70 SE11G17    N/A   WCI  26
* SAINT MARY   N/A       40  28  62 S7G19      N/A   WCI  35
$$

MTZ011-013-016-021-035-040-045-047-050-051-291400-
NORTH CENTRAL MONTANA
CITY           SKY/WX    TMP DP  RH WIND       PRES   REMARKS
HAVRE          CLEAR     32  30  92 SW12      30.11S WCI  23
LEWISTOWN      CLEAR     36  28  73 W6        30.18S WCI  31
* N BAR RANCH  CLEAR     32  27  82 N5        30.18S WCI  27
* CHESTER      N/A       29  26  89 S2         N/A
* DENTON       N/A       35  29  79 S8         N/A   WCI  28
* GEYSER       N/A       38  25  60 SW16       N/A   WCI  29
* JUDITH GAP   N/A       36  22  57 W12G17     N/A   WCI  28
* LOMA         N/A       34  28  79 S4         N/A
$$

MTZ017>020-022>027-061-062-291400-
NORTHEAST MONTANA
CITY           SKY/WX    TMP DP  RH WIND       PRES   REMARKS
GLASGOW        CLEAR     34  32  92 W6        30.11R WCI  29
GLENDIVE       CLEAR     34  30  85 W9        30.13S WCI  27
JORDAN         CLEAR     36  34  92 W9        30.13F WCI  29
SIDNEY         CLEAR     37  32  82 W12       30.10R WCI  29
WOLF POINT     CLEAR     36  32  85 W8        30.11R WCI  30
* BEAVER HILL  N/A       35  32  89 W15G20     N/A   WCI  25
* CIRCLE       N/A       34  31  89 N/A        N/A
* LINDSAY DVD  N/A       36  34  92 W13        N/A   WCI  27
* NAVAJO       N/A       35  33  92 W18        N/A   WCI  24
* SACO         N/A       34  32  92 W2         N/A
$$

MTZ028>042-056>058-291400-
SOUTHCENTRAL AND SOUTHEAST MONTANA
CITY           SKY/WX    TMP DP  RH WIND       PRES   REMARKS
BAKER          CLEAR     34 N/A N/A W12       30.14R WCI  25
BILLINGS       FAIR      41  23  49 W16       30.21S
LIVINGSTON     PTCLDY    34  19  54 W12       30.26R WCI  25
MILES CITY     CLEAR     37  36  96 W8        30.17R WCI  31
* ALZADA       N/A       41  34  76 W19G26     N/A
* HYSHAM       N/A       38  27  65 W4         N/A
* LAME DEER    N/A       38  28  67 NW8G15     N/A   WCI  32
* REED POINT   N/A       42  21  43 W13        N/A
* ROSCOE HILL  N/A       35   7  31 SE9        N/A   WCI  28
$$

REGIONAL REPORTS...DAKOTAS
CITY           SKY/WX    TMP DP  RH WIND       PRES   REMARKS
WILLISTON      CLEAR     36  32  85 W15       30.06R WCI  27
DICKINSON      CLEAR     34  32  92 W10       30.05R WCI  26
CROSBY         CLEAR     32  32 100 W10       30.02R WCI  24
WATFORD CITY   CLEAR     34  32  92 W12       30.05R WCI  25
BISMARCK       CLEAR     37  32  82 NW25G32   29.97R WCI  25
GRAND FORKS    CLOUDY    37  34  89 N28G35    29.67R WCI  25
FARGO          LGT RAIN  41  36  82 NW25G40   29.64R
BUFFALO SD     CLEAR     36  30  79 NW20      30.06R WCI  25
RAPID CITY     CLEAR     43  30  60 NW31G52   30.09R
$$

REGIONAL REPORTS...WYOMING/IDAHO/WASHINGTON
CITY           SKY/WX    TMP DP  RH WIND       PRES   REMARKS
GILLETTE       CLEAR     34  27  76 W13       30.23R WCI  25
SHERIDAN       CLEAR     36  23  59 NW10      30.23S WCI  29
CODY           PTCLDY    39  14  36 NW3       30.23S
YELLOWSTONE LA PTCLDY    16  10  77 CALM      30.34R
SALMON         PTCLDY    27  21  78 CALM      30.35F
MULLAN PASS    CLOUDY    28  27  96 S7        30.23S WCI  21
SAND POINT     MOCLDY    34  34 100 CALM      30.28S
SPOKANE        CLOUDY    39  34  82 S8        30.25F WCI  33

$$




USA.gov is the U.S. government's official web portal to all federal, state and local government web resources and services.